Location: Baix
(44.7118°N, 4.7648°E)
Time: 19:25:25
(UTC+00:00)

USA 215 - Pass Details

Date: 07 August 2020
Orbit: 1102 x 1106 km, 123.0° (Epoch: 08 August)

Event Time Altitude Azimuth Distance (km) Brightness Sun altitude
Rises 03:23:12 0° 51° (NE) 3,928 8.4 -11.7°
Reaches altitude 10° 03:25:47 10° 46° (NE) 2,968 7.1 -11.3°
Maximum altitude 03:31:58 47° 336° (NNW) 1,429 4.0 -10.4°
Drops below altitude 10° 03:38:09 10° 265° (W) 2,959 5.0 -9.5°
Enters shadow 03:38:48 - 263° (W) 3,199 5.2 -9.4°
